Location: Caltech
(34.1382°N, 118.1253°W)
Time: 09:04:03
(UTC-08:00)

Cosmos 1937 Rocket - Visible Passes

Search period start: 17 January 2017 00:00
Search period end: 27 January 2017 00:00
Orbit: 748 x 780 km, 74.0° (Epoch: 17 January)

Date Brightness Start Highest point End Pass type
(mag) Time Alt. Az. Time Alt. Az. Time Alt. Az.
17 Jan 6.7 05:54:55 10° SE 05:57:37 14° E 06:00:18 10° ENE visible
17 Jan 4.7 18:05:10 10° NNW 18:10:05 45° WSW 18:15:03 10° S visible
19 Jan 4.9 06:17:40 10° S 06:22:32 44° ESE 06:27:24 10° NNE visible
19 Jan 6.7 18:32:12 10° WNW 18:35:02 15° W 18:37:52 10° SW visible
20 Jan 6.0 05:40:25 10° SSE 05:44:26 24° E 05:48:28 10° NE visible
20 Jan 5.9 17:52:37 10° NW 17:57:00 28° W 18:01:24 10° SSW visible
21 Jan 6.8 05:04:29 10° ESE 05:06:25 12° E 05:08:23 10° ENE visible
22 Jan 3.8 06:04:23 10° S 06:09:29 73° ESE 06:14:37 10° NNE visible
23 Jan 5.0 05:26:35 10° SSE 05:31:19 38° E 05:36:02 10° NE visible
23 Jan 6.5 17:40:30 10° NW 17:43:51 17° W 17:47:12 10° SW visible
24 Jan 6.1 04:49:32 10° SE 04:53:14 20° E 04:56:56 10° NE visible
25 Jan 6.8 04:14:56 10° E 04:15:15 10° E 04:15:34 10° E visible
25 Jan 3.4 05:51:23 10° SSW 05:56:30 69° WNW 06:01:37 10° NNE visible
26 Jan 3.9 05:13:11 10° S 05:18:14 63° ESE 05:23:19 10° NNE visible
